Yankton, SD

7:25 PM CST on December 05, 2019 (GMT -0600)
Gurney Municipal

Weather History for KYKN - October, 2019

Change the Weather History Date:

Sunday, October 27, 2019

  Actual Average Record
Temperature  
Mean Temperature - -  
Max Temperature - 61 °F 87 °F (1955)
Min Temperature - 35 °F 17 °F (1957)
Moisture  
Dew Point -    
Average Humidity    
Maximum Humidity    
Minimum Humidity    
Precipitation  
Precipitation 0.00 in - - ()
Sea Level Pressure  
Sea Level Pressure 30.07 in    
Wind  
Wind Speed 20 mph (NW)    
Max Wind Speed 26 mph    
Max Gust Speed 32 mph    
Visibility 10 miles    
Events      
Averages and records for this station are not official NWS values.
T = Trace of Precipitation, MM = Missing Value Source: NWS Daily Summary

Daily Weather History Graph

Daily Weather History Graph

Search for Another Location

Airport or City:

Astronomy

Oct. 27, 2019 Rise Set
Actual Time 7:57 AM CDT 6:28 PM CDT
Civil Twilight 7:28 AM CDT 6:57 PM CDT
Nautical Twilight 6:54 AM CDT 7:31 PM CDT
Astronomical Twilight 6:22 AM CDT 8:03 PM CDT
Moon 7:04 AM CDT (10/27) 6:40 PM CDT (10/27)
Length of Visible Light 11h 29m
Length of Day
10h 31m
Waning Crescent, 0% of the Moon is Illuminated
Oct 27
Waning Crescent
Oct 27
New
Nov 4
First Quarter
Nov 12
Full
Nov 19
Last Quarter

Hourly Weather History & Observations

Time (CDT) Temp. Dew Point Humidity Pressure Visibility Wind Dir Wind Speed Gust Speed Precip Events Conditions
12:56 AM - - N/A% 29.86 in 10.0 mi NW 26.5 mph 32.2 mph N/A   Overcast
1:56 AM - - N/A% 29.88 in 10.0 mi NW 21.9 mph 31.1 mph N/A   Overcast
2:56 AM - - N/A% 29.90 in 10.0 mi NNW 21.9 mph 29.9 mph N/A   Overcast
3:56 AM - - N/A% 29.93 in 10.0 mi NW 23.0 mph 32.2 mph N/A   Overcast
4:56 AM - - N/A% 29.93 in 10.0 mi NW 23.0 mph 26.5 mph N/A   Overcast
5:56 AM - - N/A% 29.97 in 10.0 mi NW 20.7 mph - N/A   Overcast
6:56 AM - - N/A% 30.00 in 10.0 mi NNW 18.4 mph 25.3 mph N/A   Overcast
7:56 AM - - N/A% 30.02 in 10.0 mi NW 21.9 mph 27.6 mph N/A   Overcast
8:56 AM - - N/A% 30.05 in 10.0 mi NW 17.3 mph - N/A   Overcast
9:38 AM - - N/A% 30.07 in 10.0 mi NW 19.6 mph 25.3 mph N/A   Overcast
9:56 AM - - N/A% 30.07 in 10.0 mi NW 21.9 mph 26.5 mph N/A   Overcast
10:56 AM - - N/A% 30.10 in 10.0 mi NW 19.6 mph - N/A   Overcast
11:56 AM - - N/A% 30.11 in 10.0 mi NW 20.7 mph 27.6 mph N/A   Overcast
12:56 PM - - N/A% 30.12 in 10.0 mi NW 18.4 mph - N/A   Overcast
1:56 PM - - N/A% 30.12 in 10.0 mi NW 23.0 mph - N/A   Overcast
2:56 PM - - N/A% 30.12 in 10.0 mi NW 20.7 mph - N/A   Overcast
3:10 PM - - N/A% 30.12 in 10.0 mi NW 17.3 mph - N/A   Overcast
3:56 PM - - N/A% 30.12 in 10.0 mi NW 18.4 mph - N/A   Overcast
4:56 PM - - N/A% 30.13 in 10.0 mi WNW 20.7 mph 27.6 mph N/A   Overcast
5:56 PM - - N/A% 30.13 in 10.0 mi NW 16.1 mph - N/A   Overcast
6:56 PM - - N/A% 30.16 in 10.0 mi NW 16.1 mph - N/A   Overcast
7:56 PM - - N/A% 30.18 in 10.0 mi WNW 11.5 mph - N/A   Overcast
8:56 PM - - N/A% 30.19 in 10.0 mi West 8.1 mph - N/A   Clear
9:56 PM - - N/A% 30.21 in 10.0 mi West 9.2 mph - N/A   Clear
10:56 PM - - N/A% 30.22 in 10.0 mi WNW 10.4 mph - N/A   Clear
11:56 PM - - N/A% 30.22 in 10.0 mi WNW 9.2 mph - N/A   Clear